Hourly Weather Rustow

Today, 22 April, Thursday

Time Temperature Precipitation Wind Pressure Humidity
00:00 +7°C° 0.1 mm 3 mps 748 mmHg 85%
01:00 +5°C° 0.1 mm 4 mps 749 mmHg 91%
02:00 +5°C° 0.5 mm 4 mps 749 mmHg 90%
03:00 +4°C° 0.5 mm 4 mps 749 mmHg 89%
04:00 +4°C° 0.5 mm 4 mps 749 mmHg 88%
05:00 +3°C° 0 mm 5 mps 750 mmHg 83%
06:00 +2°C° 0 mm 5 mps 750 mmHg 78%
07:00 +2°C° 0 mm 6 mps 750 mmHg 73%
08:00 +3°C° 0 mm 6 mps 751 mmHg 68%
09:00 +4°C° 0 mm 7 mps 751 mmHg 63%
10:00 +5°C° 0 mm 7 mps 751 mmHg 58%
11:00 +5°C° 0 mm 7 mps 751 mmHg 57%
12:00 +6°C° 0 mm 7 mps 751 mmHg 55%
13:00 +6°C° 0 mm 7 mps 752 mmHg 54%
14:00 +6°C° 0.1 mm 7 mps 751 mmHg 55%
15:00 +6°C° 0.1 mm 7 mps 751 mmHg 56%
16:00 +6°C° 0.1 mm 7 mps 751 mmHg 57%
17:00 +5°C° 0.3 mm 7 mps 752 mmHg 62%
18:00 +4°C° 0.3 mm 6 mps 752 mmHg 67%
19:00 +3°C° 0.3 mm 5 mps 752 mmHg 72%
20:00 +2°C° 0 mm 5 mps 752 mmHg 73%
21:00 +1°C° 0 mm 4 mps 753 mmHg 73%
22:00 0°C° 0 mm 4 mps 753 mmHg 73%
23:00 0°C° 0 mm 4 mps 753 mmHg 73%

Tomorrow, 23 April, Friday

Time Temperature Precipitation Wind Pressure Humidity
00:00 -1°C° 0 mm 5 mps 753 mmHg 74%
01:00 -1°C° 0 mm 5 mps 753 mmHg 74%
02:00 -1°C° 0 mm 5 mps 753 mmHg 76%
03:00 -1°C° 0 mm 4 mps 754 mmHg 79%
04:00 -1°C° 0 mm 4 mps 754 mmHg 81%
05:00 0°C° 0 mm 5 mps 754 mmHg 77%
06:00 +1°C° 0 mm 5 mps 754 mmHg 73%
07:00 +2°C° 0 mm 5 mps 754 mmHg 69%
08:00 +3°C° 0.1 mm 6 mps 754 mmHg 63%
09:00 +5°C° 0.1 mm 6 mps 754 mmHg 58%
10:00 +7°C° 0.1 mm 6 mps 754 mmHg 52%
11:00 +6°C° 0.2 mm 7 mps 754 mmHg 52%
12:00 +6°C° 0.2 mm 7 mps 754 mmHg 52%
13:00 +6°C° 0.2 mm 7 mps 754 mmHg 52%
14:00 +6°C° 0.4 mm 7 mps 754 mmHg 61%
15:00 +5°C° 0.4 mm 7 mps 754 mmHg 70%
16:00 +4°C° 0.4 mm 7 mps 755 mmHg 79%
17:00 +3°C° 0.2 mm 6 mps 755 mmHg 74%
18:00 +2°C° 0.2 mm 5 mps 755 mmHg 69%
19:00 +1°C° 0.2 mm 4 mps 756 mmHg 64%
20:00 0°C° 0 mm 4 mps 756 mmHg 67%
21:00 0°C° 0 mm 4 mps 756 mmHg 70%
22:00 0°C° 0 mm 3 mps 757 mmHg 73%
23:00 0°C° 0 mm 3 mps 757 mmHg 75%

Day after tomorrow, 24 April, Saturday

Time Temperature Precipitation Wind Pressure Humidity
00:00 -1°C° 0 mm 3 mps 757 mmHg 77%
01:00 -2°C° 0 mm 4 mps 757 mmHg 78%
02:00 -2°C° 0 mm 4 mps 757 mmHg 80%
03:00 -1°C° 0 mm 3 mps 757 mmHg 81%
04:00 -1°C° 0 mm 3 mps 757 mmHg 82%
05:00 -1°C° 0 mm 4 mps 757 mmHg 76%
06:00 0°C° 0 mm 4 mps 757 mmHg 69%
07:00 +3°C° 0 mm 4 mps 757 mmHg 63%
08:00 +3°C° 0 mm 5 mps 757 mmHg 55%
09:00 +6°C° 0 mm 5 mps 757 mmHg 47%
10:00 +7°C° 0 mm 5 mps 757 mmHg 40%
11:00 +8°C° 0 mm 5 mps 756 mmHg 39%
12:00 +8°C° 0 mm 5 mps 756 mmHg 37%
13:00 +9°C° 0 mm 5 mps 756 mmHg 36%
14:00 +8°C° 0.1 mm 5 mps 756 mmHg 45%
15:00 +8°C° 0.1 mm 5 mps 755 mmHg 54%
16:00 +7°C° 0.1 mm 5 mps 755 mmHg 62%
17:00 +6°C° 0.2 mm 4 mps 755 mmHg 69%
18:00 +5°C° 0.2 mm 4 mps 756 mmHg 75%
19:00 +4°C° 0.2 mm 4 mps 756 mmHg 81%
20:00 +3°C° 0.2 mm 3 mps 756 mmHg 85%
21:00 +3°C° 0.2 mm 2 mps 756 mmHg 89%
22:00 +2°C° 0.2 mm 2 mps 757 mmHg 93%
23:00 +2°C° 0 mm 2 mps 757 mmHg 92%

25 April, Sunday

Time Temperature Precipitation Wind Pressure Humidity
00:00 +1°C° 0 mm 2 mps 757 mmHg 92%
01:00 -1°C° 0 mm 2 mps 757 mmHg 91%
02:00 -1°C° 0 mm 2 mps 757 mmHg 91%
03:00 -2°C° 0 mm 2 mps 757 mmHg 91%
04:00 -2°C° 0 mm 2 mps 757 mmHg 91%
05:00 +1°C° 0 mm 2 mps 757 mmHg 85%
06:00 +1°C° 0 mm 3 mps 757 mmHg 79%
07:00 +2°C° 0 mm 3 mps 757 mmHg 73%
08:00 +4°C° 0.1 mm 4 mps 757 mmHg 65%
09:00 +5°C° 0.1 mm 5 mps 757 mmHg 57%
10:00 +5°C° 0.1 mm 6 mps 757 mmHg 48%
11:00 +7°C° 0.1 mm 6 mps 757 mmHg 45%
12:00 +7°C° 0.1 mm 6 mps 757 mmHg 42%
13:00 +8°C° 0.1 mm 7 mps 756 mmHg 39%
14:00 +8°C° 0 mm 7 mps 756 mmHg 41%
15:00 +8°C° 0 mm 7 mps 756 mmHg 43%
16:00 +6°C° 0 mm 7 mps 756 mmHg 46%
17:00 +5°C° 0 mm 6 mps 756 mmHg 48%
18:00 +3°C° 0 mm 5 mps 757 mmHg 51%
19:00 +3°C° 0 mm 4 mps 757 mmHg 53%
20:00 +1°C° 0 mm 4 mps 757 mmHg 57%
21:00 0°C° 0 mm 3 mps 757 mmHg 60%
22:00 -1°C° 0 mm 2 mps 757 mmHg 64%
23:00 -1°C° 0 mm 2 mps 757 mmHg 65%

26 April, Monday

Time Temperature Precipitation Wind Pressure Humidity
00:00 -1°C° 0 mm 2 mps 757 mmHg 66%
01:00 -2°C° 0 mm 2 mps 756 mmHg 67%
02:00 -2°C° 0 mm 2 mps 756 mmHg 70%
03:00 -2°C° 0 mm 3 mps 756 mmHg 73%
04:00 -2°C° 0 mm 3 mps 756 mmHg 76%
05:00 0°C° 0 mm 3 mps 756 mmHg 70%
06:00 +1°C° 0 mm 4 mps 756 mmHg 65%
07:00 +2°C° 0 mm 5 mps 756 mmHg 59%
08:00 +5°C° 0 mm 5 mps 756 mmHg 53%
09:00 +6°C° 0 mm 5 mps 755 mmHg 48%
10:00 +7°C° 0 mm 5 mps 755 mmHg 43%
11:00 +8°C° 0 mm 5 mps 755 mmHg 41%
12:00 +10°C° 0 mm 4 mps 755 mmHg 39%
13:00 +10°C° 0 mm 4 mps 754 mmHg 37%
14:00 +10°C° 0 mm 4 mps 754 mmHg 38%
15:00 +10°C° 0 mm 3 mps 754 mmHg 39%
16:00 +10°C° 0 mm 3 mps 754 mmHg 39%
17:00 +9°C° 0 mm 2 mps 753 mmHg 45%
18:00 +7°C° 0 mm 2 mps 753 mmHg 50%
19:00 +6°C° 0 mm 1 mps 753 mmHg 55%
20:00 +6°C° 0 mm 1 mps 753 mmHg 56%
21:00 +5°C° 0 mm 1 mps 753 mmHg 56%
22:00 +4°C° 0 mm 2 mps 753 mmHg 56%
23:00 +3°C° 0 mm 2 mps 753 mmHg 58%

27 April, Tuesday

Time Temperature Precipitation Wind Pressure Humidity
00:00 +3°C° 0 mm 2 mps 752 mmHg 60%
01:00 +3°C° 0 mm 2 mps 752 mmHg 61%
02:00 +2°C° 0 mm 2 mps 752 mmHg 63%
03:00 +2°C° 0 mm 2 mps 751 mmHg 65%
04:00 +2°C° 0 mm 2 mps 751 mmHg 67%
05:00 +2°C° 0 mm 3 mps 750 mmHg 65%
06:00 +3°C° 0 mm 3 mps 750 mmHg 64%
07:00 +5°C° 0 mm 4 mps 750 mmHg 62%
08:00 +6°C° 0 mm 4 mps 749 mmHg 59%
09:00 +7°C° 0 mm 5 mps 749 mmHg 56%
10:00 +9°C° 0 mm 6 mps 748 mmHg 53%
11:00 +10°C° 0 mm 6 mps 747 mmHg 52%
12:00 +11°C° 0 mm 6 mps 746 mmHg 51%
13:00 +13°C° 0 mm 6 mps 745 mmHg 50%
14:00 +13°C° 0 mm 6 mps 745 mmHg 53%
15:00 +13°C° 0 mm 6 mps 744 mmHg 55%
16:00 +13°C° 0 mm 6 mps 743 mmHg 57%
17:00 +11°C° 0 mm 6 mps 743 mmHg 63%
18:00 +9°C° 0 mm 6 mps 742 mmHg 69%
19:00 +8°C° 0 mm 6 mps 742 mmHg 76%
20:00 +7°C° 0.2 mm 5 mps 742 mmHg 81%
21:00 +7°C° 0.2 mm 5 mps 741 mmHg 87%
22:00 +6°C° 0.2 mm 4 mps 741 mmHg 92%
23:00 +6°C° 0.6 mm 4 mps 740 mmHg 93%
Show more